This demonstration page uses our WeatherBlox Daily Observations layout. Learn more.

Left ArrowRight Arrow

40.92945, -100.16068

Hourly Observations for November 7, 2018

Temp ( °F °C ) Dew Point ( °F °C ) Humidity (%) Winds ( mph kmh ) Pressure ( in mb ) Visibility ( mi km ) Precip ( " mm )
12:15 am 00:15 Clear 28 -2.3 18 -7.6 67 67 NNW 7 11 30.3 1026 10 16.0934 0 0
12:35 am 00:35 Partly Cloudy 28 -2.2 19 -7.5 67 67 N 6 9 30.33 1027 10 16.0934 0 0
12:55 am 00:55 Partly Cloudy 28 -2.5 19 -7.5 69 69 NNW 5 7 30.33 1027 10 16.0934 0 0
1:15 am 01:15 Clear 27 -2.7 18 -8 67 67 N 7 11 30.33 1027 10 16.0934 0 0
1:35 am 01:35 Clear 26 -3.2 19 -7.4 73 73 Calm 30.33 1027 10 16.0934 0 0
1:55 am 01:55 Clear 25 -3.8 18 -8 73 73 NNW 9 15 30.36 1028 10 16.0934 0 0
2:15 am 02:15 Clear 27 -3 19 -7.3 73 73 NNW 6 9 30.36 1028 10 16.0934 0 0
2:35 am 02:35 Clear 28 -2.4 19 -7.1 70 70 N 10 17 30.36 1028 10 16.0934 0 0
2:55 am 02:55 Partly Cloudy 28 -2.4 19 -7 71 71 N 12 19 30.36 1028 10 16.0934 0 0
3:15 am 03:15 Mostly Cloudy 28 -2.5 20 -6.7 73 73 NNW 9 15 30.36 1028 10 16.0934 0 0
3:35 am 03:35 Cloudy 28 -2.5 20 -6.6 74 74 N 9 15 30.36 1028 10 16.0934 0 0
3:55 am 03:55 Cloudy 28 -2.5 21 -6.3 75 75 NNW 9 15 30.39 1029 10 16.0934 0 0
4:15 am 04:15 Cloudy 28 -2.5 20 -6.5 74 74 N 13 20 30.39 1029 10 16.0934 0 0
4:35 am 04:35 Cloudy 27 -2.7 20 -6.8 74 74 N 12 19 30.39 1029 10 16.0934 0 0
4:55 am 04:55 Cloudy 28 -2.5 20 -6.5 74 74 N 13 20 30.39 1029 10 16.0934 0 0
5:15 am 05:15 Cloudy 27 -2.7 20 -6.8 74 74 N 13 20 30.39 1029 10 16.0934 0 0
5:35 am 05:35 Cloudy 27 -2.8 19 -7.1 73 73 N 14 22 30.39 1029 10 16.0934 0 0
5:55 am 05:55 Cloudy 26 -3.2 21 -6.1 81 81 N 10 17 30.42 1030 10 16.0934 0 0
6:15 am 06:15 Cloudy 27 -3 20 -6.4 78 78 N 15 24 30.42 1030 10 16.0934 0 0
6:35 am 06:35 Cloudy 27 -3 20 -6.8 75 75 N 17 28 30.42 1030 10 16.0934 0 0
6:55 am 06:55 Cloudy 26 -3.5 21 -6.2 82 82 N 15 24 30.42 1030 10 16.0934 0 0
7:15 am 07:15 Cloudy 26 -3.2 20 -6.4 79 79 N 10 17 30.45 1031 10 16.0934 0 0
7:35 am 07:35 Cloudy 26 -3.2 20 -6.6 78 78 N 9 15 30.45 1031 10 16.0934 0 0
7:55 am 07:55 Cloudy 27 -3 19 -7.1 74 74 N 13 20 30.45 1031 10 16.0934 0 0
8:15 am 08:15 Cloudy 27 -3 19 -7.3 73 73 N 15 24 30.45 1031 10 16.0934 0 0
8:35 am 08:35 Cloudy 27 -2.7 19 -7.5 70 70 N 14 22 30.45 1031 10 16.0934 0 0
8:55 am 08:55 Cloudy 28 -2.5 18 -7.6 68 68 N 13 20 30.48 1032 10 16.0934 0 0
9:15 am 09:15 Cloudy 28 -2.5 19 -7.5 69 69 N 10 17 30.48 1032 10 16.0934 0 0
9:35 am 09:35 Cloudy 28 -2.5 18 -7.7 68 68 N 9 15 30.48 1032 10 16.0934 0 0
9:55 am 09:55 Cloudy 28 -2.5 18 -7.7 68 68 N 8 13 30.48 1032 10 16.0934 0 0
10:15 am 10:15 Cloudy 29 -1.4 19 -7.1 66 66 N 12 19 30.45 1031 10 16.0934 0 0
10:35 am 10:35 Mostly Cloudy 30 -1 19 -7.3 63 63 NNW 8 13 30.45 1031 10 16.0934 0 0
10:55 am 10:55 Cloudy 31 -0.3 20 -6.9 61 61 N 7 11 30.45 1031 10 16.0934 0 0
11:15 am 11:15 Cloudy 32 0.1 19 -7.1 59 59 N 8 13 30.45 1031 10 16.0934 0 0
11:35 am 11:35 Mostly Cloudy 33 0.5 19 -7.1 57 57 N 7 11 30.39 1029 10 16.0934 0 0
11:55 am 11:55 Partly Cloudy 33 0.6 20 -6.8 58 58 NW 8 13 30.39 1029 10 16.0934 0 0
12:15 pm 12:15 Partly Cloudy 34 1.3 20 -6.6 56 56 Calm 30.39 1029 10 16.0934 0 0
12:35 pm 12:35 Partly Cloudy 34 1.2 19 -7.1 54 54 NNW 8 13 30.39 1029 10 16.0934 0 0
12:55 pm 12:55 Partly Cloudy 36 2 20 -6.9 52 52 N 6 9 30.36 1028 10 16.0934 0 0
1:15 pm 13:15 Partly Cloudy 37 2.7 19 -7 49 49 NW 6 9 30.36 1028 10 16.0934 0 0
1:35 pm 13:35 Mostly Cloudy 38 3.6 19 -7.5 44 44 N 7 11 30.33 1027 10 16.0934 0 0
1:55 pm 13:55 Cloudy 39 4 19 -7.2 44 44 N 8 13 30.3 1026 10 16.0934 0 0
2:15 pm 14:15 Cloudy 39 4 17 -8.1 41 41 NNE 5 7 30.3 1026 10 16.0934 0 0
2:35 pm 14:35 Mostly Cloudy 39 4.1 15 -9.2 38 38 N 7 11 30.3 1026 10 16.0934 0 0
2:55 pm 14:55 Cloudy 39 4 16 -9.1 38 38 NNE 5 7 30.3 1026 10 16.0934 0 0
3:15 pm 15:15 Mostly Cloudy 39 3.7 15 -9.6 38 38 Calm 30.3 1026 10 16.0934 0 0
3:35 pm 15:35 Partly Cloudy 39 3.9 15 -9.7 37 37 Calm 30.3 1026 10 16.0934 0 0
3:55 pm 15:55 Sunny 38 3.6 16 -8.9 40 40 NE 5 7 30.3 1026 10 16.0934 0 0
4:15 pm 16:15 Partly Cloudy 38 3.5 16 -8.8 41 41 NE 3 6 30.33 1027 10 16.0934 0 0
4:35 pm 16:35 Partly Cloudy 38 3.4 17 -8.4 42 42 Calm 30.33 1027 10 16.0934 0 0
4:55 pm 16:55 Partly Cloudy 38 3.2 15 -9.7 39 39 Calm 30.33 1027 10 16.0934 0 0
5:15 pm 17:15 Partly Cloudy 37 2.7 15 -9.4 41 41 Calm 30.3 1026 10 16.0934 0 0
5:35 pm 17:35 Partly Cloudy 36 2.2 16 -8.9 44 44 Calm 30.33 1027 10 16.0934 0 0
5:55 pm 17:55 Mostly Cloudy 36 2.2 16 -8.7 45 45 Calm 30.33 1027 10 16.0934 0 0
6:15 pm 18:15 Mostly Cloudy 36 2.4 15 -9.6 41 41 Calm 30.36 1028 10 16.0934 0 0
6:35 pm 18:35 Cloudy 35 1.4 24 -4.7 64 64 Calm 30.36 1028 10 16.0934 0 0
6:55 pm 18:55 Cloudy 35 1.5 22 -5.7 59 59 Calm 30.36 1028 10 16.0934 0 0
7:15 pm 19:15 Cloudy 35 1.4 25 -4 68 68 S 3 6 30.36 1028 10 16.0934 0 0
7:35 pm 19:35 Cloudy 35 1.9 24 -4.3 64 64 Calm 30.36 1028 10 16.0934 0 0
7:55 pm 19:55 Cloudy 36 2 22 -5.8 57 57 S 6 9 30.36 1028 10 16.0934 0 0
8:15 pm 20:15 Cloudy 35 1.4 25 -4.1 67 67 S 7 11 30.36 1028 10 16.0934 0 0
8:35 pm 20:35 Cloudy with Light Snow 33 0.3 28 -2.3 83 83 SSW 8 13 30.36 1028 5 8.0467 0 0
8:55 pm 20:55 Cloudy with Snow 32 0 29 -1.8 88 88 SSW 7 11 30.42 1030 1 1.60934 0 0
9:15 pm 21:15 Cloudy with Snow 32 -0.2 29 -1.5 91 91 S 3 6 30.42 1030 1.25 2.011675 0 0
9:35 pm 21:35 Cloudy with Snow 32 -0.2 30 -1.3 92 92 SSE 5 7 30.42 1030 1.25 2.011675 0 0
9:55 pm 21:55 Cloudy with Light Snow 31 -0.5 29 -1.5 93 93 Calm 30.42 1030 1.25 2.011675 0.01 0.254
10:15 pm 22:15 Cloudy with Snow 31 -0.5 29 -1.5 93 93 Calm 30.42 1030 1.25 2.011675 0.01 0.254
10:35 pm 22:35 Cloudy with Light Snow 31 -0.5 29 -1.5 93 93 Calm 30.39 1029 4 6.43736 0.02 0.508
10:55 pm 22:55 Cloudy with Light Wintry Mix 31 -0.5 29 -1.5 93 93 Calm 30.39 1029 10 16.0934 0.03 0.762
11:15 pm 23:15 Cloudy with Light Snow 31 -0.5 29 -1.5 93 93 Calm 30.39 1029 10 16.0934 0.01 0.254
11:35 pm 23:35 Cloudy with Light Snow 31 -0.5 29 -1.5 93 93 Calm 30.39 1029 10 16.0934 0.01 0.254
11:55 pm 23:55 Cloudy with Light Snow 31 -0.3 30 -1.2 94 94 Calm 30.39 1029 7 11.26538 0.01 0.254

Powered by AerisWeather